Preview of NWS' New Version of Forecast
This preview is not operational and should not be used for support decisions.

Regional Weather Roundup (RWR)

Issued by National Weather Service (NWS)

                            
000
ASCA44 KEWX 171920
RWRMX 

LATIN AMERICA AND CARIBBEAN REGIONAL WEATHER ROUNDUP
NATIONAL WEATHER SERVICE AUSTIN/SAN ANTONIO TX
100 PM CST MON DEC 17 2018

NOTE: "FAIR" INDICATED FEW OR NO CLOUDS BELOW 12,000 FEET WITH NO
SIGNIFICANT WEATHER AND/OR OBSTRUCTIONS TO VISIBILITY.

BAJA CALIFORNIA
  
CITY           SKY/WX    TMP DP  RH WIND       PRES   REMARKS
LORETO         PTSUNNY   72  54  53 NE12      30.12                   
LA PAZ         MOSUNNY   73  57  56 N9        30.13F                  
MEXICALI       CLOUDY    57  39  51 CALM      30.17S                  
S.J. DEL CABO  MOSUNNY   77  46  33 NW5       30.10F                  
TIJUANA        PTSUNNY   61  52  72 W10       30.25S                  

NORTHWESTERN MEXICO
  
CITY           SKY/WX    TMP DP  RH WIND       PRES   REMARKS
CULIACAN       MOSUNNY   79  52  38 CALM      30.06F                  
DURANGO        CLOUDY    59  34  38 E3        30.30F                  
GUAYMAS        SUNNY     75  52  43 CALM      30.06                   
HERMOSILLO     SUNNY     73  50  43 SE9       30.16F                  
CD. JUAREZ     MOSUNNY   55  36  47 N6        30.21F                  
LOS MOCHIS     PTSUNNY   73  54  49 NW17      30.11F                  
OBREGON        MOSUNNY   73  52  46 NW9       30.10F                  

NORTHEASTERN MEXICO
  
CITY           SKY/WX    TMP DP  RH WIND       PRES   REMARKS
CHIHUAHUA      SUNNY     61  30  31 NE9       30.21F                  
MATAMOROS      CLOUDY    70  55  60 E5        30.20F                  
MONCLOVA       SUNNY     59  34  38 CALM      30.21                   
MONTERREY      PTSUNNY  N/A N/A N/A SE6       30.18F                  
NUEVO LAREDO   MOSUNNY   70  37  30 SE6       30.22F                  
PIEDRAS NEGRAS   N/A    N/A N/A N/A MISG        N/A                   
REYNOSA        CLOUDY    68  48  49 CALM      30.21F                  
SALTILLO       PTSUNNY   55  39  54 CALM      30.27F                  
TORREON        MOSUNNY   64  25  22 CALM      30.22F                  
CD. VICTORIA   MOSUNNY   72  32  23 SE2       30.19F                  

WESTERN MEXICO
  
CITY           SKY/WX    TMP DP  RH WIND       PRES   REMARKS
AGUASCALIENTES PTSUNNY   66  34  30 S12       30.33F                  
COLIMA         PTSUNNY   77  61  57 CALM      30.13F                  
DEL BAJIO      PTSUNNY   68  34  28 S6        30.36F                  
GUADALAJARA    MOSUNNY   72  41  33 N3        30.26F                  
MANZANILLO     PTSUNNY   84  70  61 S7        30.02F                  
MAZATLAN       PTSUNNY   84  52  32 SW8       30.04F                  
P. VALLARTA    PTSUNNY   81  63  54 CALM      30.02F                  
URUAPAN        CLOUDY    73  55  53 S12       30.26F                  
ZACATECAS      PTSUNNY   64  30  27 S10       30.29F                  

CENTRAL MEXICO
  
CITY           SKY/WX    TMP DP  RH WIND       PRES   REMARKS
CUERNAVACA     CLOUDY    73  48  40 S3        30.22F                  
MEXICO CITY    PTSUNNY   66  28  24 SE5       30.38F                  
MORELIA        MOSUNNY   70  45  40 N8        30.30F                  
POZA RICA      PTSUNNY   75  59  57 N5        30.19F                  
PUEBLA         PTSUNNY   68  36  30 SE6       30.35F                  
QUERETARO      PTSUNNY   68  30  24 W6        30.36F                  
S. LUIS POTOSI MOSUNNY   68  36  30 CALM      30.30F                  
TAMPICO        PTSUNNY   72  54  53 MISG      30.19F                  
TOLUCA         PTSUNNY   64  34  32 SW5       30.41F HAZE             

SOUTHERN MEXICO
  
CITY           SKY/WX    TMP DP  RH WIND       PRES   REMARKS
ACAPULCO       PTSUNNY   86  73  66 SW8       29.96F HX  93           
B. DE HUATULCO MOSUNNY   82  70  65 CALM      30.01F                  
OAXACA         MOSUNNY   73  39  29 E5        30.27F                  
P. ESCONDIDO   MOSUNNY   79  70  73 S6        30.08F                  
VERACRUZ       MOSUNNY   75  55  50 NE6       30.19F                  
ZIHUATANEJO    PTSUNNY   88  75  66 SW7       30.00F HX  97           

YUCATAN PENINSULA
  
CITY           SKY/WX    TMP DP  RH WIND       PRES   REMARKS
CAMPECHE       CLOUDY    75  59  57 N9        30.14F                  
CANCUN         PTSUNNY   79  64  61 N8        30.09F                  
CHETUMAL       CLOUDY    77  64  65 CALM      30.10F                  
CD. DEL CARMEN CLOUDY    73  66  78 W2        30.16F                  
COZUMEL        MOSUNNY   81  66  61 N12       30.07F                  
MERIDA         PTSUNNY   79  55  44 NW12      30.13F                  
MINATITLAN     PTSUNNY   75  59  57 N12       30.11F                  
TAPACHULA      MOSUNNY   90  72  55 SW8       29.94F HX  96           
TUX. GUTIERREZ PTSUNNY   73  55  53 NW5       30.15F                  
VILLAHERMOSA   CLOUDY    70  63  78 CALM      30.19F                  

CENTRAL AMERICA
  
CITY           SKY/WX    TMP DP  RH WIND       PRES   REMARKS
BELIZE CITY    MOSUNNY   77  63  61 NW10      30.09F                  
MANAGUA        PTCLDY    90  61  37 NE16      29.86F                  

CARIBBEAN
  
CITY           SKY/WX    TMP DP  RH WIND       PRES   REMARKS
ARUBA          MOSUNNY   84  73  70 E24       29.89F HX  91           
CURACAO        MOSUNNY   84  70  61 SE20      29.92F                  
KINGSTON       MOSUNNY   86  64  48 SE7       29.97F                  
NASSAU         PTSUNNY   77  66  69 N15       30.05F                  
SAN JUAN       MOSUNNY   88  64  45 SE8       30.00F                  
SANTO DOMINGO  MOSUNNY   86  73  66 S7        29.97F HX  93           
ST. CROIX      PTSUNNY   82  72  69 SE9       30.03S                  
ST. KITTS      MOSUNNY   82  66  57 E9        30.00F                  
ST. MAARTEN    MOSUNNY   82  68  61 E10       30.00S                  
ST. THOMAS     MOSUNNY   82  70  65 SE10      30.02F                  

$$